Overview Statistics Trail Chart Weather Telemetry Raw packets
 

This is the latest recevied weather packets stored in our database for station/object KB9HUO. If no packets are shown the sender has not sent any weather packets the latest 10 day(s).

<< 43 44 45 46 47 48 49 >>
Time Temp. Humidity Pressure Rain* Wind** Luminosity Snow
1788376550 35° C 56% 1018.3 hPa 0 mm - 225 W/m² -
1788376249 34.44° C 56% 1018.4 hPa 0 mm - 123 W/m² -
1788375945 34.44° C 59% 1018.6 hPa 0 mm - 147 W/m² -
1788375641 35° C 54% 1018.6 hPa 0 mm - 120 W/m² -
1788375337 35° C 56% 1018.5 hPa 0 mm - 372 W/m² -
1788375032 35° C 53% 1018.5 hPa 0 mm - 567 W/m² -
1788374727 35.56° C 55% 1018.4 hPa 0 mm - 677 W/m² -
1788374422 35° C 53% 1018.4 hPa 0 mm - 664 W/m² -
1788374119 35° C 56% 1018.5 hPa 0 mm - 685 W/m² -
1788373815 35° C 55% 1018.7 hPa 0 mm - 665 W/m² -
1788373511 35.56° C 54% 1018.6 hPa 0 mm - 678 W/m² -
1788373206 35.56° C 54% 1018.6 hPa 0 mm - 682 W/m² -
1788372902 35.56° C 53% 1018.7 hPa 0 mm - 675 W/m² -
1788372596 35° C 55% 1018.6 hPa 0 mm - 686 W/m² -
1788372296 35° C 56% 1019 hPa 0 mm - 697 W/m² -
1788371993 34.44° C 56% 1018.7 hPa 0 mm - 695 W/m² -
1788371693 34.44° C 55% 1018.8 hPa 0 mm - 701 W/m² -
1788371388 34.44° C 56% 1018.7 hPa 0 mm - 703 W/m² -
1788371085 35° C 56% 1019 hPa 0 mm - 703 W/m² -
1788370780 35° C 54% 1019 hPa 0 mm - 703 W/m² -
1788370479 35° C 56% 1019 hPa 0 mm - 699 W/m² -
1788370175 34.44° C 55% 1019.1 hPa 0 mm - 701 W/m² -
1788369874 34.44° C 56% 1019.1 hPa 0 mm - 703 W/m² -
1788369569 34.44° C 56% 1019.2 hPa 0 mm - 703 W/m² -
1788369265 34.44° C 58% 1019.3 hPa 0 mm - 698 W/m² -

* Rain latest hour (hover to see other rain measurements)
** Current wind speed in m/s (hover to see current wind gust speed)